Time,TemperatureF,DewpointF,PressureIn,WindDirection,WindDirectionDegrees,WindSpeedMPH,WindSpeedGustMPH,Humidity,HourlyPrecipIn,Conditions,Clouds,dailyrainin,SoftwareType,DateUTC
2013-01-11 00:02:00,12.0,6.0,29.34,South,173,0.0,0.0,78,0.00,,,0.00,,2013-01-11 09:02:00,
2013-01-11 00:12:00,12.0,6.0,29.34,South,173,0.0,0.0,78,0.00,,,0.00,,2013-01-11 09:12:00,
2013-01-11 00:22:00,12.0,6.0,29.33,South,173,0.0,0.0,78,0.00,,,0.00,,2013-01-11 09:22:00,
2013-01-11 00:32:00,12.0,6.0,29.33,South,173,0.0,0.0,77,0.00,,,0.00,,2013-01-11 09:32:00,
2013-01-11 00:42:00,12.0,6.0,29.33,South,173,0.0,0.0,77,0.00,,,0.00,,2013-01-11 09:42:00,
2013-01-11 00:52:00,12.0,7.0,29.32,South,173,0.0,0.0,79,0.00,,,0.00,,2013-01-11 09:52:00,
2013-01-11 01:02:00,13.0,8.0,29.32,South,173,0.0,0.0,80,0.00,,,0.00,,2013-01-11 10:02:00,
2013-01-11 01:12:00,13.0,8.0,29.32,South,173,0.0,0.0,80,0.00,,,0.00,,2013-01-11 10:12:00,
2013-01-11 01:22:00,13.0,8.0,29.32,South,173,0.0,0.0,81,0.00,,,0.00,,2013-01-11 10:22:00,
2013-01-11 01:32:00,13.0,8.0,29.31,South,173,0.0,0.0,80,0.00,,,0.00,,2013-01-11 10:32:00,
2013-01-11 01:42:00,13.0,8.0,29.31,South,173,0.0,0.0,80,0.00,,,0.00,,2013-01-11 10:42:00,
2013-01-11 01:52:00,13.0,8.0,29.31,South,173,0.0,0.0,79,0.00,,,0.00,,2013-01-11 10:52:00,
2013-01-11 02:02:00,13.0,8.0,29.29,South,173,0.0,0.0,79,0.00,,,0.00,,2013-01-11 11:02:00,
2013-01-11 02:12:00,13.0,8.0,29.29,South,173,0.0,0.0,79,0.00,,,0.00,,2013-01-11 11:12:00,
2013-01-11 02:22:00,13.0,8.0,29.28,South,173,0.0,0.0,80,0.00,,,0.00,,2013-01-11 11:22:00,
2013-01-11 02:32:00,13.0,8.0,29.27,West,276,0.0,0.0,80,0.00,,,0.00,,2013-01-11 11:32:00,
2013-01-11 02:42:00,13.0,8.0,29.27,West,276,0.0,0.0,80,0.00,,,0.00,,2013-01-11 11:42:00,
2013-01-11 02:52:00,13.0,8.0,29.27,West,276,0.0,0.0,80,0.00,,,0.00,,2013-01-11 11:52:00,
2013-01-11 03:02:00,13.0,8.0,29.26,West,276,0.0,0.0,80,0.00,,,0.00,,2013-01-11 12:02:00,
2013-01-11 03:22:00,13.0,8.0,29.26,West,276,0.0,0.0,80,0.00,,,0.00,,2013-01-11 12:22:00,
2013-01-11 03:32:00,14.0,9.0,29.26,West,276,0.0,0.0,80,0.00,,,0.00,,2013-01-11 12:32:00,
2013-01-11 03:52:00,14.0,9.0,29.25,West,276,0.0,0.0,79,0.00,,,0.00,,2013-01-11 12:52:00,
2013-01-11 04:02:00,14.0,9.0,29.25,West,276,0.0,0.0,79,0.00,,,0.00,,2013-01-11 13:02:00,
2013-01-11 04:22:00,14.0,9.0,29.25,West,276,0.0,0.0,79,0.00,,,0.00,,2013-01-11 13:22:00,
2013-01-11 04:32:00,14.0,9.0,29.22,West,276,0.0,0.0,80,0.00,,,0.00,,2013-01-11 13:32:00,
2013-01-11 04:52:00,14.0,9.0,29.23,West,276,0.0,0.0,80,0.00,,,0.00,,2013-01-11 13:52:00,
2013-01-11 05:02:00,15.0,10.0,29.23,West,276,0.0,0.0,80,0.00,,,0.00,,2013-01-11 14:02:00,
2013-01-11 05:12:00,15.0,10.0,29.22,West,276,0.0,0.0,80,0.00,,,0.00,,2013-01-11 14:12:00,
2013-01-11 05:22:00,15.0,10.0,29.22,West,276,0.0,0.0,80,0.00,,,0.00,,2013-01-11 14:22:00,
2013-01-11 05:33:00,15.0,10.0,29.21,West,276,0.0,0.0,79,0.00,,,0.00,,2013-01-11 14:33:00,
2013-01-11 05:42:00,15.0,9.0,29.21,West,276,0.0,0.0,78,0.00,,,0.00,,2013-01-11 14:42:00,
2013-01-11 06:03:00,15.0,10.0,29.21,West,276,0.0,0.0,79,0.00,,,0.00,,2013-01-11 15:03:00,
2013-01-11 06:12:00,15.0,10.0,29.21,West,276,0.0,0.0,79,0.00,,,0.00,,2013-01-11 15:12:00,
2013-01-11 06:22:00,15.0,10.0,29.21,West,276,0.0,0.0,79,0.00,,,0.00,,2013-01-11 15:22:00,
2013-01-11 06:32:00,15.0,10.0,29.21,West,276,0.0,0.0,79,0.00,,,0.00,,2013-01-11 15:32:00,
2013-01-11 06:52:00,15.0,10.0,29.21,West,276,0.0,0.0,79,0.00,,,0.00,,2013-01-11 15:52:00,
2013-01-11 07:02:00,15.0,9.0,29.22,West,276,0.0,1.0,78,0.00,,,0.00,,2013-01-11 16:02:00,
2013-01-11 07:12:00,14.0,8.0,29.22,West,276,0.0,1.0,75,0.00,,,0.00,,2013-01-11 16:12:00,
2013-01-11 07:22:00,14.0,8.0,29.22,West,276,0.0,1.0,75,0.00,,,0.00,,2013-01-11 16:22:00,
2013-01-11 07:32:00,12.0,4.0,29.23,West,276,0.0,1.0,69,0.00,,,0.00,,2013-01-11 16:32:00,
2013-01-11 07:42:00,11.0,3.0,29.23,West,276,0.0,1.0,70,0.00,,,0.00,,2013-01-11 16:42:00,
2013-01-11 07:52:00,11.0,3.0,29.23,West,276,0.0,1.0,70,0.00,,,0.00,,2013-01-11 16:52:00,
2013-01-11 08:03:00,10.0,3.0,29.23,West,276,0.0,1.0,71,0.00,,,0.00,,2013-01-11 17:03:00,
2013-01-11 08:12:00,9.0,2.0,29.24,West,276,0.0,1.0,72,0.00,,,0.00,,2013-01-11 17:12:00,
2013-01-11 08:22:00,9.0,2.0,29.24,West,276,0.0,1.0,72,0.00,,,0.00,,2013-01-11 17:22:00,
2013-01-11 08:33:00,8.0,1.0,29.25,West,276,0.0,1.0,73,0.00,,,0.00,,2013-01-11 17:33:00,
2013-01-11 08:42:00,8.0,1.0,29.25,West,276,0.0,1.0,73,0.00,,,0.00,,2013-01-11 17:42:00,
2013-01-11 08:52:00,8.0,2.0,29.26,West,270,0.0,1.0,75,0.00,,,0.00,,2013-01-11 17:52:00,
2013-01-11 09:02:00,8.0,2.0,29.26,West,270,0.0,1.0,76,0.00,,,0.00,,2013-01-11 18:02:00,
2013-01-11 09:12:00,8.0,2.0,29.26,West,270,0.0,1.0,76,0.00,,,0.00,,2013-01-11 18:12:00,
2013-01-11 09:22:00,8.0,2.0,29.26,West,270,0.0,1.0,76,0.00,,,0.00,,2013-01-11 18:22:00,
2013-01-11 09:32:00,9.0,3.0,29.27,West,270,0.0,1.0,77,0.00,,,0.00,,2013-01-11 18:32:00,
2013-01-11 09:42:00,9.0,3.0,29.27,West,270,0.0,1.0,77,0.00,,,0.00,,2013-01-11 18:42:00,
2013-01-11 09:53:00,9.0,3.0,29.27,West,270,0.0,1.0,77,0.00,,,0.00,,2013-01-11 18:53:00,
2013-01-11 10:02:00,9.0,3.0,29.29,West,270,0.0,1.0,77,0.00,,,0.00,,2013-01-11 19:02:00,
2013-01-11 10:12:00,9.0,3.0,29.29,West,270,0.0,1.0,77,0.00,,,0.00,,2013-01-11 19:12:00,
2013-01-11 10:22:00,9.0,3.0,29.29,West,270,0.0,1.0,77,0.00,,,0.00,,2013-01-11 19:22:00,
2013-01-11 10:32:00,10.0,4.0,29.29,West,270,0.0,1.0,77,0.00,,,0.00,,2013-01-11 19:32:00,
2013-01-11 10:43:00,10.0,4.0,29.29,West,270,0.0,1.0,77,0.00,,,0.00,,2013-01-11 19:43:00,
2013-01-11 10:53:00,10.0,4.0,29.29,West,270,0.0,1.0,77,0.00,,,0.00,,2013-01-11 19:53:00,
2013-01-11 11:02:00,10.0,4.0,29.30,West,270,0.0,1.0,77,0.00,,,0.00,,2013-01-11 20:02:00,
2013-01-11 11:12:00,11.0,5.0,29.30,West,270,0.0,1.0,77,0.00,,,0.00,,2013-01-11 20:12:00,
2013-01-11 11:22:00,11.0,5.0,29.30,West,270,0.0,1.0,77,0.00,,,0.00,,2013-01-11 20:22:00,
2013-01-11 11:32:00,11.0,5.0,29.30,West,270,0.0,1.0,77,0.00,,,0.00,,2013-01-11 20:32:00,
2013-01-11 11:43:00,11.0,5.0,29.30,West,270,0.0,1.0,77,0.00,,,0.00,,2013-01-11 20:43:00,
2013-01-11 11:52:00,11.0,5.0,29.31,West,270,0.0,1.0,77,0.00,,,0.00,,2013-01-11 20:52:00,
2013-01-11 12:02:00,11.0,5.0,29.31,SW,227,0.0,1.0,77,0.00,,,0.00,,2013-01-11 21:02:00,
2013-01-11 12:12:00,11.0,5.0,29.31,SW,227,0.0,1.0,77,0.00,,,0.00,,2013-01-11 21:12:00,
2013-01-11 12:22:00,11.0,5.0,29.31,SW,227,0.0,1.0,77,0.00,,,0.00,,2013-01-11 21:22:00,
2013-01-11 12:32:00,11.0,5.0,29.31,SW,227,0.0,1.0,77,0.00,,,0.00,,2013-01-11 21:32:00,
2013-01-11 12:42:00,11.0,5.0,29.31,SW,227,0.0,1.0,77,0.00,,,0.00,,2013-01-11 21:42:00,
2013-01-11 12:52:00,12.0,6.0,29.33,SW,227,0.0,1.0,77,0.00,,,0.00,,2013-01-11 21:52:00,
2013-01-11 13:02:00,12.0,6.0,29.33,SW,227,0.0,1.0,78,0.00,,,0.00,,2013-01-11 22:02:00,
2013-01-11 13:12:00,12.0,6.0,29.35,SW,227,0.0,1.0,77,0.00,,,0.00,,2013-01-11 22:12:00,
2013-01-11 13:22:00,12.0,6.0,29.35,SW,227,0.0,1.0,77,0.00,,,0.00,,2013-01-11 22:22:00,
2013-01-11 13:32:00,12.0,6.0,29.35,SW,227,0.0,1.0,77,0.00,,,0.00,,2013-01-11 22:32:00,
2013-01-11 13:42:00,12.0,6.0,29.35,SW,227,0.0,1.0,77,0.00,,,0.00,,2013-01-11 22:42:00,
2013-01-11 13:52:00,12.0,6.0,29.36,SW,227,0.0,1.0,76,0.00,,,0.00,,2013-01-11 22:52:00,
2013-01-11 14:02:00,12.0,6.0,29.36,SW,227,0.0,1.0,77,0.00,,,0.00,,2013-01-11 23:02:00,
2013-01-11 14:12:00,12.0,6.0,29.37,SW,227,0.0,1.0,77,0.00,,,0.00,,2013-01-11 23:12:00,
2013-01-11 14:22:00,12.0,6.0,29.37,SW,227,0.0,1.0,77,0.00,,,0.00,,2013-01-11 23:22:00,
2013-01-11 14:32:00,12.0,6.0,29.37,SW,227,0.0,1.0,77,0.00,,,0.00,,2013-01-11 23:32:00,
2013-01-11 14:42:00,12.0,6.0,29.37,SW,227,0.0,1.0,77,0.00,,,0.00,,2013-01-11 23:42:00,
2013-01-11 14:52:00,12.0,6.0,29.38,SW,227,0.0,1.0,77,0.00,,,0.00,,2013-01-11 23:52:00,
2013-01-11 15:02:00,12.0,6.0,29.39,SW,227,0.0,1.0,77,0.00,,,0.00,,2013-01-12 00:02:00,
2013-01-11 15:12:00,12.0,6.0,29.40,SW,227,0.0,1.0,77,0.00,,,0.00,,2013-01-12 00:12:00,
2013-01-11 15:22:00,12.0,6.0,29.40,SW,227,0.0,1.0,77,0.00,,,0.00,,2013-01-12 00:22:00,
2013-01-11 15:32:00,12.0,6.0,29.40,SW,227,0.0,1.0,77,0.00,,,0.00,,2013-01-12 00:32:00,
2013-01-11 15:42:00,12.0,6.0,29.40,SW,227,0.0,1.0,77,0.00,,,0.00,,2013-01-12 00:42:00,
2013-01-11 15:52:00,12.0,6.0,29.40,SW,227,0.0,1.0,78,0.00,,,0.00,,2013-01-12 00:52:00,
2013-01-11 16:02:00,13.0,7.0,29.41,SW,227,0.0,1.0,78,0.00,,,0.00,,2013-01-12 01:02:00,
2013-01-11 16:12:00,13.0,7.0,29.41,SW,227,0.0,1.0,78,0.00,,,0.00,,2013-01-12 01:12:00,
2013-01-11 16:22:00,13.0,7.0,29.41,SW,227,0.0,1.0,78,0.00,,,0.00,,2013-01-12 01:22:00,
2013-01-11 16:32:00,13.0,7.0,29.41,SW,227,0.0,1.0,78,0.00,,,0.00,,2013-01-12 01:32:00,
2013-01-11 16:42:00,13.0,7.0,29.41,SW,227,0.0,1.0,78,0.00,,,0.00,,2013-01-12 01:42:00,
2013-01-11 16:52:00,13.0,8.0,29.43,SW,227,0.0,1.0,79,0.00,,,0.00,,2013-01-12 01:52:00,
2013-01-11 17:02:00,13.0,7.0,29.43,SW,227,0.0,1.0,78,0.00,,,0.00,,2013-01-12 02:02:00,
2013-01-11 17:12:00,13.0,7.0,29.43,SW,227,0.0,1.0,78,0.00,,,0.00,,2013-01-12 02:12:00,
2013-01-11 17:22:00,14.0,8.0,29.43,SW,227,0.0,1.0,78,0.00,,,0.00,,2013-01-12 02:22:00,
2013-01-11 17:32:00,14.0,8.0,29.44,SW,227,0.0,1.0,78,0.00,,,0.00,,2013-01-12 02:32:00,
2013-01-11 17:42:00,14.0,8.0,29.44,SW,227,0.0,1.0,78,0.00,,,0.00,,2013-01-12 02:42:00,
2013-01-11 17:52:00,14.0,8.0,29.44,SW,227,0.0,1.0,78,0.00,,,0.00,,2013-01-12 02:52:00,
2013-01-11 18:02:00,14.0,8.0,29.44,SW,227,0.0,1.0,78,0.00,,,0.00,,2013-01-12 03:02:00,
2013-01-11 18:12:00,14.0,8.0,29.44,SW,227,0.0,1.0,78,0.00,,,0.00,,2013-01-12 03:12:00,
2013-01-11 18:22:00,14.0,8.0,29.44,SW,227,0.0,1.0,78,0.00,,,0.00,,2013-01-12 03:22:00,
2013-01-11 18:32:00,14.0,8.0,29.45,SW,227,0.0,1.0,78,0.00,,,0.00,,2013-01-12 03:32:00,
2013-01-11 18:42:00,14.0,8.0,29.45,SW,227,0.0,1.0,78,0.00,,,0.00,,2013-01-12 03:42:00,
2013-01-11 18:52:00,14.0,8.0,29.46,SW,227,0.0,1.0,78,0.00,,,0.00,,2013-01-12 03:52:00,
2013-01-11 19:02:00,14.0,8.0,29.47,SW,227,0.0,1.0,78,0.00,,,0.00,,2013-01-12 04:02:00,
2013-01-11 19:12:00,14.0,8.0,29.48,SW,227,0.0,1.0,78,0.00,,,0.00,,2013-01-12 04:12:00,
2013-01-11 19:22:00,14.0,8.0,29.48,SW,227,0.0,1.0,78,0.00,,,0.00,,2013-01-12 04:22:00,
2013-01-11 19:32:00,14.0,8.0,29.48,SW,227,0.0,1.0,78,0.00,,,0.00,,2013-01-12 04:32:00,
2013-01-11 19:42:00,14.0,8.0,29.48,SW,227,0.0,1.0,78,0.00,,,0.00,,2013-01-12 04:42:00,
2013-01-11 19:52:00,14.0,8.0,29.50,SW,227,0.0,1.0,78,0.00,,,0.00,,2013-01-12 04:52:00,
2013-01-11 20:03:00,14.0,8.0,29.50,SW,227,0.0,1.0,78,0.00,,,0.00,,2013-01-12 05:03:00,
2013-01-11 20:12:00,14.0,8.0,29.50,SW,227,0.0,1.0,78,0.00,,,0.00,,2013-01-12 05:12:00,
2013-01-11 20:22:00,14.0,8.0,29.50,SW,227,0.0,1.0,78,0.00,,,0.00,,2013-01-12 05:22:00,
2013-01-11 20:32:00,14.0,9.0,29.50,SW,227,0.0,1.0,79,0.00,,,0.00,,2013-01-12 05:32:00,
2013-01-11 20:42:00,14.0,9.0,29.50,SW,227,0.0,1.0,79,0.00,,,0.00,,2013-01-12 05:42:00,
2013-01-11 20:52:00,14.0,9.0,29.50,SW,227,0.0,1.0,79,0.00,,,0.00,,2013-01-12 05:52:00,
2013-01-11 21:02:00,14.0,9.0,29.52,SW,227,0.0,1.0,79,0.00,,,0.00,,2013-01-12 06:02:00,
2013-01-11 21:12:00,14.0,9.0,29.52,SW,227,0.0,1.0,79,0.00,,,0.00,,2013-01-12 06:12:00,
2013-01-11 21:22:00,14.0,9.0,29.52,SW,227,0.0,1.0,79,0.00,,,0.00,,2013-01-12 06:22:00,
2013-01-11 21:32:00,15.0,10.0,29.53,SW,227,0.0,1.0,79,0.00,,,0.00,,2013-01-12 06:32:00,
2013-01-11 21:43:00,15.0,10.0,29.53,SW,227,0.0,1.0,79,0.00,,,0.00,,2013-01-12 06:43:00,
2013-01-11 21:52:00,15.0,10.0,29.53,SW,227,0.0,1.0,79,0.00,,,0.00,,2013-01-12 06:52:00,
2013-01-11 22:02:00,14.0,9.0,29.54,SW,227,0.0,1.0,79,0.00,,,0.00,,2013-01-12 07:02:00,
2013-01-11 22:12:00,14.0,9.0,29.54,SW,227,0.0,1.0,79,0.00,,,0.00,,2013-01-12 07:12:00,
2013-01-11 22:22:00,14.0,9.0,29.54,SW,227,0.0,1.0,79,0.00,,,0.00,,2013-01-12 07:22:00,
2013-01-11 22:32:00,14.0,8.0,29.54,SW,227,0.0,1.0,78,0.00,,,0.00,,2013-01-12 07:32:00,
2013-01-11 22:42:00,14.0,8.0,29.54,SW,227,0.0,1.0,78,0.00,,,0.00,,2013-01-12 07:42:00,
2013-01-11 22:52:00,14.0,8.0,29.54,SW,227,0.0,1.0,78,0.00,,,0.00,,2013-01-12 07:52:00,
2013-01-11 23:02:00,14.0,8.0,29.54,SW,227,0.0,1.0,78,0.00,,,0.00,,2013-01-12 08:02:00,
2013-01-11 23:11:00,14.0,8.0,29.54,SW,227,0.0,1.0,78,0.00,,,0.00,,2013-01-12 08:11:00,
2013-01-11 23:22:00,14.0,8.0,29.54,SW,227,0.0,1.0,78,0.00,,,0.00,,2013-01-12 08:22:00,
2013-01-11 23:32:00,14.0,8.0,29.54,SW,227,0.0,1.0,78,0.00,,,0.00,,2013-01-12 08:32:00,